Rechercher aéroport 
image banner adimage banner adimage banner ad
image banner ad

PN82 - West Coplay

Situé à Whitehall, United States

ICAO - PN82, IATA -

Données fournies par Airmate  

Information générale

Coordonnées: N40°40'27" W75°30'18"
Élévation : 375 feet MSL.
 
Voir autres Aéroports à Pennsylvania

Données opérationnelles

Special qualification required
Heure actuelle UTC:
Heure actuelle locale:
Météo à : KABE - Lehigh Valley Intl ( 6 km )
METAR: KABE 291451Z 18010KT 10SM BKN021 OVC031 23/18 A2998 RMK AO2 SLP148 T02330183 58010
TAF: KABE 291502Z 2915/3012 17008KT P6SM VCSH BKN020 FM291800 21010KT P6SM -SHRA VCTS BKN045CB TEMPO 2921/2924 VRB10G30KT 2SM TSRA OVC050CB FM300200 26008KT 6SM BR BKN020
Voir NOTAMs / SUP AIP / TFR affectant cet aéroport [VIEW]
Fréquences de communication: [VIEW]

Pistes:

Coordonnées de l'aéroport

Adresse: Whitehall United States

Vue satellite de PN82